Time,TemperatureF,DewpointF,PressureIn,WindDirection,WindDirectionDegrees,WindSpeedMPH,WindSpeedGustMPH,Humidity,HourlyPrecipIn,Conditions,Clouds,dailyrainin,SoftwareType,DateUTC
2013-02-23 00:00:00,36.0,34.4,30.10,SSW,196,2.0,2.0,94,0.03,,---,0.34,VWS V14.01,2013-02-23 05:00:00,
2013-02-23 00:30:00,36.0,34.4,30.08,SSW,196,0.0,3.0,94,0.02,,---,0.00,VWS V14.01,2013-02-23 05:30:00,
2013-02-23 01:00:00,36.0,34.4,30.04,SSW,196,0.0,0.0,94,0.03,,---,0.01,VWS V14.01,2013-02-23 06:00:00,
2013-02-23 01:30:00,36.0,34.4,30.03,SSW,195,0.0,0.0,94,0.01,,---,0.01,VWS V14.01,2013-02-23 06:30:00,
2013-02-23 02:00:00,36.2,34.6,30.03,SSW,195,0.0,0.0,94,0.02,,---,0.02,VWS V14.01,2013-02-23 07:00:00,
2013-02-23 02:30:00,36.3,34.7,30.01,SSW,195,0.0,0.0,94,0.01,,---,0.02,VWS V14.01,2013-02-23 07:30:00,
2013-02-23 03:00:00,36.5,34.9,30.01,SSW,195,0.0,0.0,94,0.01,,---,0.02,VWS V14.01,2013-02-23 08:00:00,
2013-02-23 03:30:00,36.3,34.7,30.00,ESE,123,0.0,3.0,94,0.00,,---,0.02,VWS V14.01,2013-02-23 08:30:00,
2013-02-23 04:00:00,36.3,34.7,29.97,SE,138,0.0,4.0,94,0.01,,---,0.03,VWS V14.01,2013-02-23 09:00:00,
2013-02-23 04:30:00,36.5,35.2,29.96,ESE,114,0.0,5.0,95,0.01,,---,0.03,VWS V14.01,2013-02-23 09:30:00,
2013-02-23 05:00:00,36.5,35.2,29.94,ESE,109,0.0,6.0,95,0.01,,---,0.03,VWS V14.01,2013-02-23 10:00:00,
2013-02-23 05:30:00,36.6,35.3,29.94,ESE,109,0.0,0.0,95,0.00,,---,0.03,VWS V14.01,2013-02-23 10:30:00,
2013-02-23 06:00:00,36.8,35.5,29.94,ESE,108,0.0,6.0,95,0.13,,---,0.16,VWS V14.01,2013-02-23 11:00:00,
2013-02-23 06:30:00,37.0,35.7,29.95,East,91,0.0,4.0,95,0.22,,---,0.25,VWS V14.01,2013-02-23 11:30:00,
2013-02-23 07:00:00,37.3,36.0,29.97,East,91,0.0,4.0,95,0.25,,---,0.28,VWS V14.01,2013-02-23 12:00:00,
2013-02-23 07:30:00,37.3,36.0,29.97,East,91,0.0,0.0,95,0.15,,---,0.31,VWS V14.01,2013-02-23 12:30:00,
2013-02-23 08:00:00,37.5,36.2,29.94,East,91,0.0,0.0,95,0.10,,---,0.35,VWS V14.01,2013-02-23 13:00:00,
2013-02-23 08:30:00,37.6,36.3,29.91,SSW,200,8.0,8.0,95,0.11,,---,0.39,VWS V14.01,2013-02-23 13:30:00,
2013-02-23 09:00:00,37.8,36.5,29.91,SSE,149,0.0,11.0,95,0.15,,---,0.46,VWS V14.01,2013-02-23 14:00:00,
2013-02-23 09:30:00,38.0,36.7,29.90,SSE,150,0.0,0.0,95,0.15,,---,0.50,VWS V14.01,2013-02-23 14:30:00,
2013-02-23 10:00:00,38.3,37.0,29.91,SSE,150,0.0,0.0,95,0.15,,---,0.54,VWS V14.01,2013-02-23 15:00:00,
2013-02-23 10:30:00,38.6,37.3,29.92,SSE,150,0.0,0.0,95,0.15,,---,0.61,VWS V14.01,2013-02-23 15:30:00,
2013-02-23 11:00:00,39.2,37.9,29.89,SSE,150,0.0,0.0,95,0.17,,---,0.67,VWS V14.01,2013-02-23 16:00:00,
2013-02-23 11:30:00,39.5,38.2,29.90,SSE,148,0.0,0.0,95,0.15,,---,0.69,VWS V14.01,2013-02-23 16:30:00,
2013-02-23 12:00:00,39.6,38.3,29.89,SSE,148,0.0,0.0,95,0.10,,---,0.71,VWS V14.01,2013-02-23 17:00:00,
2013-02-23 12:30:00,40.1,38.8,29.87,SSE,148,0.0,0.0,95,0.06,,---,0.73,VWS V14.01,2013-02-23 17:30:00,
2013-02-23 13:00:00,40.3,39.0,29.85,SSE,148,0.0,0.0,95,0.07,,---,0.76,VWS V14.01,2013-02-23 18:00:00,
2013-02-23 13:30:00,40.8,39.5,29.85,SSE,148,0.0,2.0,95,0.06,,---,0.77,VWS V14.01,2013-02-23 18:30:00,
2013-02-23 14:00:00,41.3,40.0,29.84,SSE,148,0.0,0.0,95,0.06,,---,0.79,VWS V14.01,2013-02-23 19:00:00,
2013-02-23 14:30:00,41.3,40.0,29.84,SSE,147,0.0,4.0,95,0.04,,---,0.80,VWS V14.01,2013-02-23 19:30:00,
2013-02-23 15:00:00,41.2,39.9,29.83,ENE,60,0.0,5.0,95,0.03,,---,0.80,VWS V14.01,2013-02-23 20:00:00,
2013-02-23 15:30:00,41.8,40.5,29.83,ENE,61,0.0,0.0,95,0.01,,---,0.80,VWS V14.01,2013-02-23 20:30:00,
2013-02-23 16:00:00,42.3,41.0,29.80,ENE,61,0.0,0.0,95,0.00,,---,0.80,VWS V14.01,2013-02-23 21:00:00,
2013-02-23 16:30:00,42.5,41.2,29.80,ENE,61,0.0,0.0,95,0.01,,---,0.81,VWS V14.01,2013-02-23 21:30:00,
2013-02-23 17:00:00,42.6,41.3,29.79,ENE,61,0.0,0.0,95,0.01,,---,0.81,VWS V14.01,2013-02-23 22:00:00,
2013-02-23 17:30:00,42.8,41.5,29.80,ENE,61,0.0,0.0,95,0.01,,---,0.81,VWS V14.01,2013-02-23 22:30:00,
2013-02-23 18:00:00,42.8,41.5,29.80,ENE,61,0.0,0.0,95,0.00,,---,0.81,VWS V14.01,2013-02-23 23:00:00,
2013-02-23 18:30:00,42.9,41.6,29.79,ENE,61,0.0,3.0,95,0.00,,---,0.81,VWS V14.01,2013-02-23 23:30:00,
2013-02-23 19:00:00,42.8,41.5,29.77,ENE,61,0.0,0.0,95,0.00,,---,0.81,VWS V14.01,2013-02-24 00:00:00,
2013-02-23 19:30:00,42.8,41.5,29.76,ENE,61,0.0,0.0,95,0.00,,---,0.81,VWS V14.01,2013-02-24 00:30:00,
2013-02-23 20:00:00,42.8,41.5,29.76,ENE,61,0.0,0.0,95,0.00,,---,0.81,VWS V14.01,2013-02-24 01:00:00,
2013-02-23 20:30:00,42.8,41.5,29.77,ENE,61,0.0,0.0,95,0.00,,---,0.81,VWS V14.01,2013-02-24 01:30:00,
2013-02-23 21:00:00,42.9,41.6,29.78,ENE,61,0.0,0.0,95,0.00,,---,0.81,VWS V14.01,2013-02-24 02:00:00,
2013-02-23 21:30:00,43.1,41.8,29.79,ENE,61,0.0,0.0,95,0.00,,---,0.81,VWS V14.01,2013-02-24 02:30:00,
2013-02-23 22:00:00,43.2,41.9,29.79,ENE,61,0.0,0.0,95,0.00,,---,0.81,VWS V14.01,2013-02-24 03:00:00,
2013-02-23 22:30:00,43.3,42.0,29.79,ENE,61,0.0,5.0,95,0.00,,---,0.81,VWS V14.01,2013-02-24 03:30:00,
2013-02-23 23:00:00,43.5,42.2,29.78,ENE,61,0.0,6.0,95,0.00,,---,0.81,VWS V14.01,2013-02-24 04:00:00,
2013-02-23 23:30:00,43.5,42.2,29.76,ENE,60,0.0,1.0,95,0.00,,---,0.81,VWS V14.01,2013-02-24 04:30:00,